| time (UTC) | temp C | wind direction | speed KPH | gust KPH | rain 1hr cm | rain 24hr cm | rain mn cm | humidity % | barometer mb |
| 20260503174014 | 16 | 235 | 8.0 | 9.7 | 0.00 | 0.00 | 0.00 | 36 | 1015.0 |
| 20260503173509 | 15 | 208 | 8.0 | 12.9 | 0.00 | 0.00 | 0.00 | 36 | 1015.0 |
| 20260503173006 | 15 | 204 | 8.0 | 14.5 | 0.00 | 0.00 | 0.00 | 37 | 1015.1 |
| 20260503172504 | 15 | 176 | 12.9 | 14.5 | 0.00 | 0.00 | 0.00 | 38 | 1015.6 |
| 20260503172001 | 15 | 272 | 4.8 | 11.3 | 0.00 | 0.00 | 0.00 | 37 | 1015.5 |
| 20260503171457 | 15 | 189 | 12.9 | 14.5 | 0.00 | 0.00 | 0.00 | 36 | 1015.6 |
| 20260503170954 | 15 | 260 | 3.2 | 8.0 | 0.00 | 0.00 | 0.00 | 34 | 1015.7 |
| 20260503170450 | 15 | 190 | 8.0 | 9.7 | 0.00 | 0.00 | 0.00 | 37 | 1015.8 |
| 20260503150843 | 13 | 222 | 3.2 | 3.2 | 0.00 | 0.00 | 0.00 | 44 | 1017.0 |
| 20260503150339 | 13 | 270 | 6.4 | 12.9 | 0.00 | 0.00 | 0.00 | 43 | 1017.2 |
| 20260503140303 | 11 | 243 | 1.6 | 9.7 | 0.00 | 0.00 | 0.00 | 49 | 1017.4 |
| 20260503131233 | 9 | 205 | 4.8 | 9.7 | 0.00 | 0.00 | 0.00 | 64 | 1017.8 |
| 20260503130731 | 9 | 189 | 6.4 | 8.0 | 0.00 | 0.00 | 0.00 | 63 | 1017.8 |
| 20260503130228 | 8 | 262 | 1.6 | 3.2 | 0.00 | 0.00 | 0.00 | 66 | 1018.0 |
| 20260503120153 | 3 | 313 | 0.0 | 0.0 | 0.00 | 0.00 | 0.00 | 95 | 1017.7 |
| 20260503110621 | 1 | 313 | 0.0 | 0.0 | 0.00 | 0.00 | 0.00 | 96 | 1017.2 |
| 20260503110118 | 1 | 313 | 0.0 | 0.0 | 0.00 | 0.00 | 0.00 | 96 | 1017.2 |
| 20260503090508 | 1 | 313 | 0.0 | 0.0 | 0.00 | 0.00 | 0.00 | 94 | 1016.5 |
| 20260503081434 | 1 | 314 | 0.0 | 0.0 | 0.00 | 0.00 | 0.00 | 93 | 1016.4 |
| 20260503080932 | 1 | 313 | 0.0 | 0.0 | 0.00 | 0.00 | 0.00 | 93 | 1016.3 |
| 20260503080428 | 1 | 313 | 0.0 | 0.0 | 0.00 | 0.00 | 0.00 | 93 | 1016.5 |
| 20260503072904 | 1 | 313 | 0.0 | 0.0 | 0.00 | 0.00 | 0.00 | 92 | 1016.3 |
| 20260503072401 | 1 | 313 | 0.0 | 0.0 | 0.00 | 0.00 | 0.00 | 92 | 1016.2 |
| 20260503071858 | 1 | 313 | 0.0 | 0.0 | 0.00 | 0.00 | 0.00 | 92 | 1016.2 |
| 20260503071355 | 2 | 313 | 0.0 | 0.0 | 0.00 | 0.00 | 0.00 | 92 | 1016.0 |
| 20260503070851 | 2 | 313 | 0.0 | 0.0 | 0.00 | 0.00 | 0.00 | 92 | 1016.2 |
| 20260503070349 | 2 | 313 | 0.0 | 0.0 | 0.00 | 0.00 | 0.00 | 92 | 1016.1 |
| 20260503060314 | 2 | 313 | 0.0 | 0.0 | 0.00 | 0.00 | 0.00 | 88 | 1016.4 |
| 20260503054802 | 2 | 314 | 0.0 | 0.0 | 0.00 | 0.00 | 0.00 | 87 | 1016.4 |
| 20260503054258 | 2 | 314 | 0.0 | 0.0 | 0.00 | 0.00 | 0.00 | 87 | 1016.5 |
| 20260503053756 | 2 | 314 | 0.0 | 0.0 | 0.00 | 0.00 | 0.00 | 87 | 1016.5 |
| 20260503053254 | 2 | 314 | 0.0 | 0.0 | 0.00 | 0.00 | 0.00 | 87 | 1016.2 |
| 20260503052750 | 2 | 313 | 0.0 | 0.0 | 0.00 | 0.00 | 0.00 | 86 | 1016.4 |
| 20260503052247 | 2 | 314 | 0.0 | 0.0 | 0.00 | 0.00 | 0.00 | 86 | 1016.4 |
| 20260503051742 | 2 | 314 | 0.0 | 0.0 | 0.00 | 0.00 | 0.00 | 85 | 1016.5 |
| 20260503051240 | 3 | 314 | 0.0 | 0.0 | 0.00 | 0.00 | 0.00 | 85 | 1016.3 |
| 20260503050737 | 3 | 314 | 0.0 | 0.0 | 0.00 | 0.00 | 0.00 | 85 | 1016.3 |
| 20260503050233 | 3 | 314 | 0.0 | 0.0 | 0.00 | 0.00 | 0.00 | 84 | 1016.3 |
| 20260503045730 | 3 | 314 | 0.0 | 0.0 | 0.00 | 0.00 | 0.00 | 84 | 1016.5 |
| 20260503045228 | 3 | 314 | 0.0 | 0.0 | 0.00 | 0.00 | 0.00 | 83 | 1016.2 |
| 20260503044724 | 3 | 314 | 0.0 | 0.0 | 0.00 | 0.00 | 0.00 | 82 | 1016.4 |
| 20260503044222 | 3 | 314 | 0.0 | 0.0 | 0.00 | 0.00 | 0.00 | 81 | 1016.3 |
| 20260503043718 | 3 | 314 | 0.0 | 0.0 | 0.00 | 0.00 | 0.00 | 81 | 1016.5 |
| 20260503043216 | 3 | 313 | 0.0 | 0.0 | 0.00 | 0.00 | 0.00 | 80 | 1016.4 |
| 20260503042712 | 3 | 313 | 0.0 | 0.0 | 0.00 | 0.00 | 0.00 | 79 | 1016.4 |
| 20260503042208 | 3 | 313 | 0.0 | 0.0 | 0.00 | 0.00 | 0.00 | 79 | 1016.4 |
| 20260503041704 | 3 | 313 | 0.0 | 0.0 | 0.00 | 0.00 | 0.00 | 78 | 1016.4 |
| 20260503041202 | 4 | 313 | 0.0 | 0.0 | 0.00 | 0.00 | 0.00 | 78 | 1016.1 |
| 20260503040659 | 4 | 313 | 0.0 | 0.0 | 0.00 | 0.00 | 0.00 | 77 | 1016.3 |
| 20260503040157 | 4 | 313 | 0.0 | 0.0 | 0.00 | 0.00 | 0.00 | 77 | 1016.3 |
| 20260503035653 | 5 | 313 | 0.0 | 0.0 | 0.00 | 0.00 | 0.00 | 77 | 1016.2 |
| 20260503035151 | 4 | 313 | 0.0 | 0.0 | 0.00 | 0.00 | 0.00 | 75 | 1016.4 |
| 20260503034648 | 4 | 313 | 0.0 | 0.0 | 0.00 | 0.00 | 0.00 | 74 | 1016.5 |
| 20260503034145 | 5 | 313 | 0.0 | 0.0 | 0.00 | 0.00 | 0.00 | 74 | 1016.3 |
| 20260503033642 | 5 | 313 | 0.0 | 0.0 | 0.00 | 0.00 | 0.00 | 74 | 1016.3 |
| 20260503033140 | 5 | 313 | 0.0 | 0.0 | 0.00 | 0.00 | 0.00 | 72 | 1016.3 |
| 20260503032638 | 5 | 313 | 0.0 | 0.0 | 0.00 | 0.00 | 0.00 | 73 | 1016.4 |
| 20260503032137 | 5 | 313 | 0.0 | 0.0 | 0.00 | 0.00 | 0.00 | 72 | 1016.2 |
| 20260503031634 | 5 | 313 | 0.0 | 0.0 | 0.00 | 0.00 | 0.00 | 72 | 1016.3 |
| 20260503031131 | 5 | 313 | 0.0 | 0.0 | 0.00 | 0.00 | 0.00 | 71 | 1016.3 |
| 20260503030627 | 5 | 313 | 0.0 | 1.6 | 0.00 | 0.00 | 0.00 | 68 | 1016.5 |
| 20260503030124 | 5 | 313 | 0.0 | 1.6 | 0.00 | 0.00 | 0.00 | 69 | 1016.4 |
| 20260503025620 | 5 | 313 | 1.6 | 1.6 | 0.00 | 0.00 | 0.00 | 69 | 1016.4 |
| 20260503025119 | 5 | 313 | 0.0 | 1.6 | 0.00 | 0.00 | 0.00 | 69 | 1016.3 |
| 20260503024615 | 6 | 313 | 0.0 | 0.0 | 0.00 | 0.00 | 0.00 | 70 | 1016.2 |
| 20260503024112 | 6 | 313 | 0.0 | 0.0 | 0.00 | 0.00 | 0.00 | 67 | 1016.1 |
| 20260503023609 | 6 | 313 | 0.0 | 0.0 | 0.00 | 0.00 | 0.00 | 65 | 1016.2 |
| 20260503023106 | 6 | 313 | 0.0 | 0.0 | 0.00 | 0.00 | 0.00 | 64 | 1016.2 |
| 20260503022601 | 6 | 313 | 0.0 | 0.0 | 0.00 | 0.00 | 0.00 | 62 | 1016.2 |
| 20260503022056 | 6 | 313 | 0.0 | 0.0 | 0.00 | 0.00 | 0.00 | 60 | 1015.7 |
| 20260503021554 | 7 | 313 | 0.0 | 0.0 | 0.00 | 0.00 | 0.00 | 61 | 1016.1 |
| 20260503021051 | 7 | 313 | 0.0 | 0.0 | 0.00 | 0.00 | 0.00 | 61 | 1016.0 |
| 20260503020548 | 7 | 313 | 0.0 | 0.0 | 0.00 | 0.00 | 0.00 | 59 | 1015.7 |
| 20260503020044 | 7 | 313 | 0.0 | 0.0 | 0.00 | 0.00 | 0.00 | 57 | 1015.9 |
| 20260503015541 | 7 | 314 | 0.0 | 0.0 | 0.00 | 0.00 | 0.00 | 56 | 1015.8 |
| 20260503015039 | 7 | 314 | 0.0 | 1.6 | 0.00 | 0.00 | 0.00 | 55 | 1015.8 |
| 20260503014534 | 8 | 314 | 0.0 | 1.6 | 0.00 | 0.00 | 0.00 | 54 | 1015.7 |
| 20260503014033 | 8 | 314 | 0.0 | 1.6 | 0.00 | 0.00 | 0.00 | 54 | 1015.6 |
| 20260503013529 | 8 | 314 | 0.0 | 1.6 | 0.00 | 0.00 | 0.00 | 53 | 1015.7 |
| 20260503013027 | 8 | 314 | 0.0 | 1.6 | 0.00 | 0.00 | 0.00 | 52 | 1015.4 |
| 20260503012525 | 8 | 318 | 3.2 | 3.2 | 0.00 | 0.00 | 0.00 | 52 | 1015.5 |
| 20260503012021 | 8 | 312 | 0.0 | 1.6 | 0.00 | 0.00 | 0.00 | 52 | 1015.5 |
| 20260503011517 | 8 | 312 | 1.6 | 1.6 | 0.00 | 0.00 | 0.00 | 52 | 1015.3 |
| 20260503011015 | 8 | 318 | 1.6 | 1.6 | 0.00 | 0.00 | 0.00 | 52 | 1015.4 |
| 20260503010511 | 8 | 320 | 3.2 | 3.2 | 0.00 | 0.00 | 0.00 | 51 | 1015.3 |
| 20260503010009 | 8 | 313 | 0.0 | 1.6 | 0.00 | 0.00 | 0.00 | 51 | 1015.4 |
| 20260503005505 | 8 | 323 | 1.6 | 3.2 | 0.00 | 0.00 | 0.00 | 50 | 1015.4 |
| 20260503005002 | 9 | 335 | 1.6 | 3.2 | 0.00 | 0.00 | 0.00 | 49 | 1015.3 |
| 20260503004459 | 9 | 330 | 1.6 | 8.0 | 0.00 | 0.00 | 0.00 | 49 | 1015.2 |
| 20260503003956 | 9 | 332 | 3.2 | 3.2 | 0.00 | 0.00 | 0.00 | 49 | 1015.1 |
| 20260503003453 | 9 | 314 | 0.0 | 3.2 | 0.00 | 0.00 | 0.00 | 49 | 1015.0 |
| 20260503002950 | 9 | 332 | 3.2 | 9.7 | 0.00 | 0.00 | 0.00 | 48 | 1015.0 |
| 20260503002447 | 10 | 324 | 1.6 | 3.2 | 0.00 | 0.00 | 0.00 | 48 | 1014.9 |
| 20260503001943 | 10 | 324 | 1.6 | 8.0 | 0.00 | 0.00 | 0.00 | 47 | 1014.9 |
| 20260503001440 | 10 | 328 | 3.2 | 3.2 | 0.00 | 0.00 | 0.00 | 47 | 1014.8 |
| 20260503000938 | 10 | 330 | 3.2 | 8.0 | 0.00 | 0.00 | 0.00 | 46 | 1014.7 |
| 20260503000437 | 10 | 333 | 3.2 | 3.2 | 0.00 | 0.00 | 0.00 | 46 | 1014.7 |
| 20260502235932 | 10 | 4 | 3.2 | 3.2 | 0.00 | 0.00 | 0.00 | 44 | 1014.8 |
| 20260502235429 | 10 | 327 | 1.6 | 4.8 | 0.00 | 0.00 | 0.00 | 43 | 1014.6 |
| 20260502234926 | 10 | 304 | 1.6 | 4.8 | 0.00 | 0.00 | 0.00 | 44 | 1014.6 |
| 20260502234422 | 10 | 336 | 4.8 | 4.8 | 0.00 | 0.00 | 0.00 | 43 | 1014.5 |
| 20260502233920 | 10 | 332 | 3.2 | 4.8 | 0.00 | 0.00 | 0.00 | 42 | 1014.5 |
| 20260502233415 | 10 | 307 | 3.2 | 8.0 | 0.00 | 0.00 | 0.00 | 41 | 1014.5 |
| 20260502232913 | 11 | 310 | 4.8 | 4.8 | 0.00 | 0.00 | 0.00 | 41 | 1014.5 |
| 20260502232409 | 11 | 304 | 6.4 | 9.7 | 0.00 | 0.00 | 0.00 | 41 | 1014.3 |
| 20260502231906 | 11 | 305 | 1.6 | 4.8 | 0.00 | 0.00 | 0.00 | 42 | 1014.4 |
| 20260502231403 | 11 | 356 | 4.8 | 8.0 | 0.00 | 0.00 | 0.00 | 41 | 1014.3 |
| 20260502230901 | 11 | 337 | 3.2 | 4.8 | 0.00 | 0.00 | 0.00 | 40 | 1014.1 |
| 20260502230359 | 11 | 318 | 3.2 | 8.0 | 0.00 | 0.00 | 0.00 | 41 | 1014.3 |
| 20260502225856 | 11 | 321 | 3.2 | 3.2 | 0.00 | 0.00 | 0.00 | 41 | 1014.1 |
| 20260502225352 | 11 | 312 | 1.6 | 9.7 | 0.00 | 0.00 | 0.00 | 41 | 1014.5 |
| 20260502224850 | 11 | 314 | 1.6 | 4.8 | 0.00 | 0.00 | 0.00 | 40 | 1014.3 |
| 20260502224345 | 11 | 324 | 1.6 | 8.0 | 0.00 | 0.00 | 0.00 | 40 | 1014.1 |
| 20260502223843 | 11 | 329 | 4.8 | 16.1 | 0.00 | 0.00 | 0.00 | 39 | 1014.0 |
| 20260502223341 | 11 | 348 | 3.2 | 4.8 | 0.00 | 0.00 | 0.00 | 40 | 1014.0 |
| 20260502222838 | 11 | 338 | 4.8 | 4.8 | 0.00 | 0.00 | 0.00 | 40 | 1014.1 |
| 20260502222336 | 11 | 356 | 4.8 | 8.0 | 0.00 | 0.00 | 0.00 | 39 | 1013.9 |
| 20260502221831 | 11 | 328 | 3.2 | 14.5 | 0.00 | 0.00 | 0.00 | 39 | 1013.9 |
| 20260502221328 | 11 | 322 | 3.2 | 4.8 | 0.00 | 0.00 | 0.00 | 39 | 1014.3 |
| 20260502220825 | 11 | 335 | 4.8 | 12.9 | 0.00 | 0.00 | 0.00 | 38 | 1013.9 |
| 20260502220321 | 11 | 315 | 6.4 | 8.0 | 0.00 | 0.00 | 0.00 | 39 | 1014.0 |
| 20260502215818 | 11 | 29 | 4.8 | 8.0 | 0.00 | 0.00 | 0.00 | 38 | 1014.0 |
| 20260502215315 | 11 | 296 | 8.0 | 12.9 | 0.00 | 0.00 | 0.00 | 38 | 1014.0 |
| 20260502214812 | 11 | 307 | 8.0 | 11.3 | 0.00 | 0.00 | 0.00 | 39 | 1013.9 |
| 20260502214308 | 12 | 329 | 3.2 | 11.3 | 0.00 | 0.00 | 0.00 | 37 | 1013.6 |
| 20260502213806 | 12 | 328 | 4.8 | 9.7 | 0.00 | 0.00 | 0.00 | 37 | 1013.7 |
| 20260502213303 | 12 | 359 | 4.8 | 4.8 | 0.00 | 0.00 | 0.00 | 38 | 1013.7 |
| 20260502212802 | 12 | 311 | 1.6 | 9.7 | 0.00 | 0.00 | 0.00 | 38 | 1013.9 |
| 20260502212300 | 12 | 341 | 3.2 | 8.0 | 0.00 | 0.00 | 0.00 | 37 | 1013.8 |
| 20260502211755 | 12 | 353 | 9.7 | 12.9 | 0.00 | 0.00 | 0.00 | 36 | 1013.8 |
| 20260502211252 | 12 | 324 | 9.7 | 11.3 | 0.00 | 0.00 | 0.00 | 36 | 1013.7 |
| 20260502210750 | 12 | 324 | 3.2 | 4.8 | 0.00 | 0.00 | 0.00 | 35 | 1013.7 |
| 20260502210247 | 12 | 337 | 8.0 | 11.3 | 0.00 | 0.00 | 0.00 | 35 | 1013.7 |
| 20260502205744 | 12 | 287 | 3.2 | 8.0 | 0.00 | 0.00 | 0.00 | 36 | 1013.7 |
| 20260502205240 | 12 | 5 | 9.7 | 14.5 | 0.00 | 0.00 | 0.00 | 35 | 1013.8 |
| 20260502204738 | 12 | 308 | 1.6 | 8.0 | 0.00 | 0.00 | 0.00 | 35 | 1013.7 |
| 20260502204235 | 12 | 358 | 4.8 | 9.7 | 0.00 | 0.00 | 0.00 | 35 | 1013.8 |
| 20260502203732 | 12 | 335 | 1.6 | 4.8 | 0.00 | 0.00 | 0.00 | 37 | 1013.9 |
| 20260502203230 | 12 | 317 | 4.8 | 9.7 | 0.00 | 0.00 | 0.00 | 35 | 1013.9 |
| 20260502202724 | 12 | 323 | 3.2 | 8.0 | 0.00 | 0.00 | 0.00 | 35 | 1013.9 |
| 20260502202222 | 12 | 353 | 4.8 | 8.0 | 0.00 | 0.00 | 0.00 | 35 | 1013.8 |
| 20260502201719 | 13 | 292 | 1.6 | 4.8 | 0.00 | 0.00 | 0.00 | 37 | 1013.9 |
| 20260502201216 | 12 | 310 | 3.2 | 8.0 | 0.00 | 0.00 | 0.00 | 36 | 1013.8 |
| 20260502200712 | 12 | 315 | 3.2 | 14.5 | 0.00 | 0.00 | 0.00 | 36 | 1013.9 |
| 20260502200208 | 13 | 330 | 6.4 | 12.9 | 0.00 | 0.00 | 0.00 | 36 | 1013.8 |
| 20260502195707 | 12 | 340 | 8.0 | 9.7 | 0.00 | 0.00 | 0.00 | 37 | 1014.1 |
| 20260502195203 | 12 | 258 | 1.6 | 3.2 | 0.00 | 0.00 | 0.00 | 42 | 1014.1 |
| 20260502194700 | 12 | 279 | 3.2 | 9.7 | 0.00 | 0.00 | 0.00 | 38 | 1014.0 |
| 20260502194156 | 12 | 313 | 6.4 | 9.7 | 0.00 | 0.00 | 0.00 | 38 | 1014.0 |
| 20260502193653 | 12 | 23 | 6.4 | 9.7 | 0.00 | 0.00 | 0.00 | 37 | 1013.9 |
| 20260502193150 | 12 | 344 | 4.8 | 9.7 | 0.00 | 0.00 | 0.00 | 37 | 1014.1 |
| 20260502192645 | 12 | 267 | 3.2 | 4.8 | 0.00 | 0.00 | 0.00 | 41 | 1014.3 |
| 20260502192143 | 12 | 326 | 9.7 | 12.9 | 0.00 | 0.00 | 0.00 | 38 | 1014.5 |
| 20260502191640 | 12 | 291 | 0.0 | 9.7 | 0.00 | 0.00 | 0.00 | 38 | 1014.0 |
| 20260502191137 | 11 | 330 | 3.2 | 8.0 | 0.00 | 0.00 | 0.00 | 39 | 1014.5 |
| 20260502190634 | 12 | 21 | 6.4 | 9.7 | 0.00 | 0.00 | 0.00 | 38 | 1014.4 |
| 20260502190132 | 12 | 312 | 1.6 | 8.0 | 0.00 | 0.00 | 0.00 | 42 | 1014.3 |
| 20260502185626 | 12 | 287 | 0.0 | 9.7 | 0.00 | 0.00 | 0.00 | 40 | 1014.5 |
| 20260502185124 | 12 | 20 | 8.0 | 12.9 | 0.00 | 0.00 | 0.00 | 37 | 1014.5 |
| 20260502184620 | 12 | 327 | 1.6 | 8.0 | 0.00 | 0.00 | 0.00 | 38 | 1014.4 |
| 20260502184115 | 12 | 5 | 6.4 | 11.3 | 0.00 | 0.00 | 0.00 | 39 | 1014.8 |
| 20260502183612 | 12 | 349 | 4.8 | 8.0 | 0.00 | 0.00 | 0.00 | 41 | 1014.6 |
| 20260502183108 | 12 | 305 | 3.2 | 8.0 | 0.00 | 0.00 | 0.00 | 41 | 1014.9 |
| 20260502182603 | 12 | 324 | 8.0 | 12.9 | 0.00 | 0.00 | 0.00 | 39 | 1014.7 |
| 20260502182059 | 11 | 325 | 4.8 | 11.3 | 0.00 | 0.00 | 0.00 | 40 | 1014.7 |
| 20260502181557 | 11 | 355 | 4.8 | 8.0 | 0.00 | 0.00 | 0.00 | 41 | 1014.8 |
| 20260502181056 | 12 | 333 | 3.2 | 9.7 | 0.00 | 0.00 | 0.00 | 40 | 1014.8 |
| 20260502180553 | 12 | 296 | 1.6 | 11.3 | 0.00 | 0.00 | 0.00 | 42 | 1014.9 |